When you browse on this site, cookies collect data to enhance your experience and personalize the content and advertising you see.
Visit our Privacy Policy to learn more. By continuing to use the site, you agree to this use of cookies and data.
  • în România
  • Lista ţărilor
  • Pe 7 zile
  • Temperatura apei
  • Meteo pe hartă
  • Widget-uri
  • user-avatar
    Intrare

    Meteo pe oră la Francistown

    Astăzi, 23 Februarie, Duminică

    Timp Temperatura Precipitaţii Vânt Presiune Umiditate
    00:00 +28°C° 0.1 mm 1 m/s 675 mmHg 56%
    01:00 +27°C° 0.1 mm 2 m/s 674 mmHg 57%
    02:00 +27°C° 0 mm 2 m/s 675 mmHg 56%
    03:00 +26°C° 0 mm 1 m/s 674 mmHg 58%
    04:00 +26°C° 0 mm 1 m/s 674 mmHg 61%
    05:00 +23°C° 0 mm 0 m/s 674 mmHg 64%
    06:00 +26°C° 0 mm 1 m/s 675 mmHg 59%
    07:00 +28°C° 0 mm 1 m/s 675 mmHg 55%
    08:00 +29°C° 0 mm 1 m/s 676 mmHg 50%
    09:00 +31°C° 0 mm 1 m/s 676 mmHg 45%
    10:00 +34°C° 0 mm 2 m/s 677 mmHg 40%
    11:00 +36°C° 0 mm 2 m/s 677 mmHg 34%
    12:00 +36°C° 0 mm 2 m/s 676 mmHg 34%
    13:00 +36°C° 0 mm 2 m/s 676 mmHg 33%
    14:00 +36°C° 0 mm 3 m/s 675 mmHg 32%
    15:00 +34°C° 0.3 mm 3 m/s 675 mmHg 39%
    16:00 +33°C° 0.3 mm 4 m/s 674 mmHg 45%
    17:00 +30°C° 0.3 mm 5 m/s 673 mmHg 51%
    18:00 +28°C° 1.8 mm 7 m/s 674 mmHg 62%
    19:00 +26°C° 1.8 mm 8 m/s 674 mmHg 72%
    20:00 +23°C° 1.8 mm 10 m/s 675 mmHg 82%
    21:00 +22°C° 1.1 mm 10 m/s 676 mmHg 82%
    22:00 +22°C° 1.1 mm 10 m/s 676 mmHg 82%
    23:00 +21°C° 1.1 mm 9 m/s 677 mmHg 82%

    Mâine, 24 Februarie, Luni

    Timp Temperatura Precipitaţii Vânt Presiune Umiditate
    00:00 +21°C° 0.2 mm 9 m/s 677 mmHg 82%
    01:00 +19°C° 0.2 mm 9 m/s 677 mmHg 82%
    02:00 +18°C° 0.2 mm 9 m/s 677 mmHg 83%
    03:00 +18°C° 0.1 mm 9 m/s 677 mmHg 83%
    04:00 +18°C° 0.1 mm 8 m/s 677 mmHg 83%
    05:00 +18°C° 0.1 mm 8 m/s 677 mmHg 82%
    06:00 +17°C° 1.2 mm 7 m/s 677 mmHg 83%
    07:00 +17°C° 1.2 mm 7 m/s 678 mmHg 84%
    08:00 +16°C° 1.2 mm 7 m/s 678 mmHg 85%
    09:00 +16°C° 0.4 mm 7 m/s 678 mmHg 83%
    10:00 +17°C° 0.4 mm 7 m/s 678 mmHg 81%
    11:00 +17°C° 0.4 mm 7 m/s 678 mmHg 78%
    12:00 +17°C° 0 mm 7 m/s 678 mmHg 77%
    13:00 +18°C° 0 mm 7 m/s 678 mmHg 75%
    14:00 +18°C° 0 mm 8 m/s 678 mmHg 73%
    15:00 +18°C° 0 mm 7 m/s 677 mmHg 71%
    16:00 +20°C° 0 mm 6 m/s 677 mmHg 69%
    17:00 +20°C° 0 mm 6 m/s 677 mmHg 66%
    18:00 +20°C° 0 mm 5 m/s 677 mmHg 68%
    19:00 +20°C° 0 mm 5 m/s 678 mmHg 69%
    20:00 +20°C° 0 mm 5 m/s 678 mmHg 70%
    21:00 +19°C° 0 mm 5 m/s 678 mmHg 70%
    22:00 +19°C° 0 mm 5 m/s 678 mmHg 71%
    23:00 +19°C° 0 mm 5 m/s 678 mmHg 71%

    Poimâine, 25 Februarie, Marţi

    Timp Temperatura Precipitaţii Vânt Presiune Umiditate
    00:00 +19°C° 0 mm 5 m/s 678 mmHg 72%
    01:00 +19°C° 0 mm 5 m/s 677 mmHg 74%
    02:00 +17°C° 0 mm 5 m/s 677 mmHg 75%
    03:00 +17°C° 0 mm 6 m/s 677 mmHg 77%
    04:00 +17°C° 0 mm 6 m/s 677 mmHg 78%
    05:00 +17°C° 0 mm 6 m/s 677 mmHg 80%
    06:00 +17°C° 0 mm 6 m/s 677 mmHg 79%
    07:00 +17°C° 0 mm 7 m/s 678 mmHg 79%
    08:00 +17°C° 0 mm 7 m/s 678 mmHg 78%
    09:00 +20°C° 0 mm 7 m/s 678 mmHg 71%
    10:00 +21°C° 0 mm 7 m/s 678 mmHg 64%
    11:00 +23°C° 0 mm 6 m/s 679 mmHg 57%
    12:00 +24°C° 0 mm 6 m/s 678 mmHg 52%
    13:00 +27°C° 0 mm 6 m/s 678 mmHg 48%
    14:00 +28°C° 0 mm 6 m/s 677 mmHg 44%
    15:00 +28°C° 0 mm 6 m/s 677 mmHg 42%
    16:00 +28°C° 0 mm 5 m/s 676 mmHg 40%
    17:00 +27°C° 0 mm 5 m/s 676 mmHg 38%
    18:00 +26°C° 0 mm 5 m/s 676 mmHg 41%
    19:00 +23°C° 0 mm 4 m/s 676 mmHg 45%
    20:00 +22°C° 0 mm 4 m/s 676 mmHg 48%
    21:00 +21°C° 0 mm 4 m/s 676 mmHg 52%
    22:00 +20°C° 0 mm 3 m/s 677 mmHg 55%
    23:00 +19°C° 0 mm 3 m/s 677 mmHg 59%

    26 Februarie, Miercuri

    Timp Temperatura Precipitaţii Vânt Presiune Umiditate
    00:00 +19°C° 0 mm 3 m/s 677 mmHg 62%
    01:00 +19°C° 0 mm 3 m/s 676 mmHg 65%
    02:00 +18°C° 0 mm 3 m/s 676 mmHg 67%
    03:00 +18°C° 0 mm 3 m/s 676 mmHg 70%
    04:00 +17°C° 0 mm 3 m/s 676 mmHg 73%
    05:00 +17°C° 0 mm 3 m/s 676 mmHg 75%
    06:00 +18°C° 0 mm 3 m/s 676 mmHg 72%
    07:00 +19°C° 0 mm 4 m/s 677 mmHg 68%
    08:00 +20°C° 0 mm 4 m/s 677 mmHg 64%
    09:00 +23°C° 0 mm 4 m/s 677 mmHg 52%
    10:00 +26°C° 0 mm 4 m/s 678 mmHg 40%
    11:00 +29°C° 0 mm 4 m/s 678 mmHg 28%
    12:00 +30°C° 0 mm 4 m/s 678 mmHg 25%
    13:00 +32°C° 0 mm 4 m/s 677 mmHg 21%
    14:00 +34°C° 0 mm 4 m/s 677 mmHg 17%
    15:00 +34°C° 0 mm 4 m/s 676 mmHg 17%
    16:00 +34°C° 0 mm 4 m/s 676 mmHg 18%
    17:00 +33°C° 0 mm 4 m/s 675 mmHg 18%
    18:00 +30°C° 0 mm 4 m/s 675 mmHg 22%
    19:00 +28°C° 0 mm 4 m/s 675 mmHg 27%
    20:00 +25°C° 0 mm 4 m/s 675 mmHg 32%
    21:00 +24°C° 0 mm 3 m/s 675 mmHg 35%
    22:00 +22°C° 0 mm 3 m/s 676 mmHg 38%
    23:00 +21°C° 0 mm 3 m/s 676 mmHg 42%

    27 Februarie, Joi

    Timp Temperatura Precipitaţii Vânt Presiune Umiditate
    00:00 +21°C° 0 mm 3 m/s 676 mmHg 47%
    01:00 +21°C° 0 mm 3 m/s 675 mmHg 52%
    02:00 +20°C° 0 mm 3 m/s 675 mmHg 56%
    03:00 +20°C° 0 mm 3 m/s 675 mmHg 68%
    04:00 +20°C° 0 mm 3 m/s 675 mmHg 79%
    05:00 +19°C° 0 mm 3 m/s 675 mmHg 91%
    06:00 +21°C° 0 mm 3 m/s 676 mmHg 83%
    07:00 +22°C° 0 mm 3 m/s 676 mmHg 75%
    08:00 +25°C° 0 mm 3 m/s 677 mmHg 68%
    09:00 +28°C° 0 mm 2 m/s 677 mmHg 55%
    10:00 +30°C° 0 mm 2 m/s 677 mmHg 42%
    11:00 +33°C° 0 mm 1 m/s 678 mmHg 29%
    12:00 +34°C° 0 mm 1 m/s 677 mmHg 26%
    13:00 +35°C° 0 mm 1 m/s 677 mmHg 22%
    14:00 +36°C° 0 mm 1 m/s 677 mmHg 19%
    15:00 +36°C° 0 mm 1 m/s 676 mmHg 18%
    16:00 +36°C° 0 mm 1 m/s 675 mmHg 18%
    17:00 +35°C° 0 mm 1 m/s 675 mmHg 18%
    18:00 +34°C° 0 mm 2 m/s 675 mmHg 23%
    19:00 +31°C° 0 mm 2 m/s 675 mmHg 27%
    20:00 +28°C° 0 mm 2 m/s 675 mmHg 32%
    21:00 +27°C° 0 mm 3 m/s 675 mmHg 35%
    22:00 +27°C° 0 mm 3 m/s 675 mmHg 39%
    23:00 +26°C° 0 mm 3 m/s 676 mmHg 42%

    28 Februarie, Vineri

    Timp Temperatura Precipitaţii Vânt Presiune Umiditate
    00:00 +25°C° 0 mm 3 m/s 676 mmHg 43%
    01:00 +25°C° 0 mm 3 m/s 675 mmHg 45%
    02:00 +24°C° 0 mm 3 m/s 675 mmHg 47%
    03:00 +24°C° 0 mm 2 m/s 675 mmHg 53%
    04:00 +23°C° 0 mm 2 m/s 675 mmHg 60%
    05:00 +23°C° 0 mm 2 m/s 675 mmHg 66%
    06:00 +24°C° 0 mm 2 m/s 676 mmHg 62%
    07:00 +25°C° 0 mm 2 m/s 676 mmHg 57%
    08:00 +27°C° 0 mm 2 m/s 677 mmHg 53%
    09:00 +29°C° 0 mm 3 m/s 677 mmHg 44%
    10:00 +31°C° 0 mm 3 m/s 678 mmHg 35%
    11:00 +34°C° 0 mm 4 m/s 678 mmHg 26%
    12:00 +35°C° 0 mm 5 m/s 678 mmHg 24%
    13:00 +36°C° 0 mm 6 m/s 677 mmHg 22%
    14:00 +38°C° 0 mm 6 m/s 677 mmHg 21%
    15:00 +38°C° 0 mm 7 m/s 676 mmHg 22%
    16:00 +36°C° 0 mm 7 m/s 676 mmHg 24%
    17:00 +35°C° 0 mm 7 m/s 676 mmHg 26%
    18:00 +33°C° 0 mm 7 m/s 676 mmHg 32%
    19:00 +30°C° 0 mm 7 m/s 676 mmHg 38%
    20:00 +29°C° 0 mm 7 m/s 677 mmHg 43%
    21:00 +27°C° 0 mm 8 m/s 677 mmHg 54%
    22:00 +24°C° 0 mm 9 m/s 678 mmHg 65%
    23:00 +23°C° 0 mm 10 m/s 678 mmHg 76%
    Arată mai mult